This is the latest recevied weather packets stored in our database for station/object WT9M-8. If no packets are shown the sender has not sent any weather packets the latest 10 day(s).
| Time | Temp. | Humidity | Pressure | Rain* | Wind** | Luminosity | Snow |
|---|---|---|---|---|---|---|---|
| 1777494021 | 15.56° C | 53% | 1015.6 hPa | 0 mm | - | 111 W/m² | - |
| 1777492833 | 14.44° C | 60% | 1015.8 hPa | 0 mm | - | 587 W/m² | - |
| 1777488059 | 12.78° C | 65% | 1015.9 hPa | 0 mm | - | 374 W/m² | - |
| 1777485017 | 8.89° C | 71% | 1016.2 hPa | 0 mm | - | 165 W/m² | - |
| 1777483223 | 8.89° C | 65% | 1016 hPa | 0 mm | - | 69 W/m² | - |
| 1777482618 | 9.44° C | 63% | 1016 hPa | 0 mm | - | 80 W/m² | - |
| 1777479029 | 12.78° C | 51% | 1015.4 hPa | 0 mm | - | 116 W/m² | - |
| 1777476631 | 14.44° C | 51% | 1014.9 hPa | 0 mm | - | 129 W/m² | - |
| 1777475421 | 13.89° C | 54% | 1014.9 hPa | 0 mm | - | 399 W/m² | - |
| 1777473626 | 13.33° C | 53% | 1014.9 hPa | 0 mm | - | 322 W/m² | - |
| 1777472436 | 12.78° C | 58% | 1014.9 hPa | 0 mm | - | 289 W/m² | - |
| 1777459236 | 6.67° C | 77% | 1015.1 hPa | 0.25 mm | - | 0 W/m² | - |
| 1777455647 | 7.22° C | 74% | 1015 hPa | 0 mm | - | 0 W/m² | - |
| 1777450832 | 8.33° C | 72% | 1014.4 hPa | 0 mm | - | 0 W/m² | - |
| 1777441824 | 8.89° C | 71% | 1013.5 hPa | 0 mm | - | 0 W/m² | - |
| 1777440635 | 8.89° C | 70% | 1013.8 hPa | 0 mm | - | 0 W/m² | - |
| 1777432833 | 10.56° C | 68% | 1013.6 hPa | 0 mm | - | 0 W/m² | - |
| 1777428619 | 8.89° C | 74% | 1013.9 hPa | 0 mm | - | 0 W/m² | - |
| 1777426845 | 10° C | 70% | 1013.8 hPa | 0 mm | - | 0 W/m² | - |
| 1777422632 | 13.89° C | 54% | 1012.8 hPa | 0 mm | - | 11 W/m² | - |
| 1777421423 | 14.44° C | 51% | 1012.8 hPa | 0 mm | - | 23 W/m² | - |
| 1777419628 | 16.11° C | 51% | 1012.8 hPa | 0 mm | - | 43 W/m² | - |
| 1777416020 | 17.22° C | 45% | 1012.1 hPa | 0 mm | - | 99 W/m² | - |
| 1777415455 | 17.78° C | 45% | 1012.2 hPa | 0 mm | - | 104 W/m² | - |
| 1777404023 | 20° C | 46% | 1013 hPa | 0 mm | - | 681 W/m² | - |
* Rain latest hour (hover to see other rain measurements)
** Current wind speed in m/s (hover to see current wind gust speed)